{"data":{"norad_id":57914,"intl_designator":"2023-147B","name":"STARLINK-30483","alt_names":[],"object_type":"PAYLOAD","status":"ACTIVE","operator":null,"country":"US","launch_date":"2023-09-24","launch_site_code":"AFETR","launch_vehicle":null,"mission":null,"orbit_class":"UNKNOWN","rcs_meters":null,"size_class":null,"mass_kg":null,"dimensions":null,"purposes":["comms"],"wikipedia_slug":null,"has_3d_model":false,"image_url":null,"decayed_at":null,"tle_current":{"epoch":"2026-05-24T21:27:56.776032Z","epoch_age_seconds":87467,"freshness":"FRESH","line1":"1 57914U 23147B   26144.89440713  .00000795  00000+0  38433-4 0  9991","line2":"2 57914  43.0031 109.2641 0001299 291.8099  68.2614 15.27575351149968","mean_motion":15.27575351,"eccentricity":0.0001299,"inclination_deg":43.0031,"raan_deg":109.2641,"arg_perigee_deg":291.8099,"mean_anomaly_deg":68.2614,"bstar":3.8433e-5,"rev_number":14996,"period_min":94.267035603666,"perigee_km":482.17174697124,"apogee_km":483.95428673562,"semimajor_km":6861.2000168534,"source":"CELESTRAK","updated_at":"2026-05-25T13:38:18.456548Z"}}}